Weather History for KFMN - March, 2014

Change the Weather History Date:

Friday, March 7, 2014

  Actual Average Record
Temperature  
Mean Temperature 44 °F -  
Max Temperature 53 °F 53 °F 68 °F (2013)
Min Temperature 34 °F 25 °F 18 °F (2008)
Degree Days  
Heating Degree Days 22    
Moisture  
Dew Point 29 °F    
Average Humidity 58    
Maximum Humidity 73    
Minimum Humidity 33    
Precipitation  
Precipitation 0.00 in - - ()
Sea Level Pressure  
Sea Level Pressure 29.91 in    
Wind  
Wind Speed 9 mph (WNW)    
Max Wind Speed 26 mph    
Max Gust Speed 39 mph    
Visibility 10 miles    
Events      
Averages and records for this station are not official NWS values.
T = Trace of Precipitation, MM = Missing Value Source: NWS Daily Summary

Daily Weather History Graph

Daily Weather History Graph

Search for Another Location

Airport or City:

Trip Planner

Search our weather history database for the weather conditions in past years. The results will help you decide how hot, cold, wet, or windy it might be!

Date:

Astronomy

Mar. 07, 2014 Rise Set
Actual Time 6:35 AM MST 6:13 PM MST
Civil Twilight 6:09 AM MST 6:38 PM MST
Nautical Twilight 5:39 AM MST 7:08 PM MST
Astronomical Twilight 5:09 AM MST 7:39 PM MST
Moon 10:40 AM MST (3/7) 12:11 AM MST (3/7)
Length of Visible Light 12h 29m
Length of Day
11h 37m
Waxing Crescent, 42% of the Moon is Illuminated
Mar 7
Waxing Crescent
Mar 8
First Quarter
Mar 16
Full
Mar 23
Last Quarter
Mar 30
New

Hourly Weather History & Observations

Time (MST) Temp. Windchill Dew Point Humidity Pressure Visibility Wind Dir Wind Speed Gust Speed Precip Events Conditions
12:53 AM 41.0 °F 38.0 °F 27.0 °F 57% 29.86 in 10.0 mi East 4.6 mph - N/A   Clear
1:53 AM 37.9 °F - 28.0 °F 68% 29.86 in 10.0 mi Calm Calm - N/A   Overcast
2:53 AM 35.1 °F - 27.0 °F 72% 29.85 in 10.0 mi Calm Calm - N/A   Clear
3:53 AM 35.1 °F 31.0 °F 27.0 °F 72% 29.84 in 10.0 mi East 4.6 mph - N/A   Clear
4:53 AM 35.1 °F 30.1 °F 27.0 °F 72% 29.84 in 10.0 mi East 5.8 mph - N/A   Clear
5:53 AM 35.1 °F 29.3 °F 27.0 °F 72% 29.84 in 10.0 mi ENE 6.9 mph - N/A   Partly Cloudy
6:53 AM 37.0 °F 32.4 °F 28.9 °F 73% 29.86 in 10.0 mi NNW 5.8 mph - 0.00 in   Overcast
7:53 AM 39.0 °F - 30.9 °F 73% 29.89 in 10.0 mi Calm Calm - N/A   Overcast
8:53 AM 46.9 °F - 30.9 °F 54% 29.89 in 10.0 mi NW 13.8 mph 25.3 mph N/A   Mostly Cloudy
9:06 AM 46.0 °F 41.9 °F 32.0 °F 58% 29.93 in 10.0 mi NNE 8.1 mph - N/A   Overcast
9:53 AM 48.0 °F - 34.0 °F 58% 29.86 in 10.0 mi West 8.1 mph - N/A   Mostly Cloudy
10:38 AM 45.0 °F 36.9 °F 35.1 °F 68% 29.94 in 10.0 mi West 20.7 mph 26.5 mph N/A   Mostly Cloudy
10:48 AM 44.6 °F 36.6 °F 33.8 °F 66% 29.94 in 10.0 mi West 19.6 mph 28.8 mph N/A   Scattered Clouds
10:53 AM 46.0 °F 37.8 °F 35.1 °F 66% 29.90 in 10.0 mi West 23.0 mph 28.8 mph N/A   Scattered Clouds
11:53 AM 48.9 °F - 35.1 °F 59% 29.90 in 10.0 mi WNW 23.0 mph 31.1 mph N/A   Scattered Clouds
12:53 PM 46.9 °F - 34.0 °F 61% 29.90 in 10.0 mi NNW 25.3 mph 36.8 mph N/A   Mostly Cloudy
1:53 PM 51.1 °F - 32.0 °F 48% 29.88 in 10.0 mi WNW 18.4 mph 26.5 mph N/A   Partly Cloudy
2:53 PM 46.0 °F 37.2 °F 30.0 °F 54% 29.90 in 10.0 mi NNW 26.5 mph 39.1 mph N/A   Overcast
3:53 PM 46.9 °F - 32.0 °F 56% 29.92 in 10.0 mi West 19.6 mph 24.2 mph 0.00 in   Partly Cloudy
4:53 PM 48.9 °F - 28.9 °F 46% 29.91 in 10.0 mi West 18.4 mph - N/A   Clear
5:53 PM 48.0 °F - 25.0 °F 41% 29.93 in 10.0 mi WNW 12.7 mph 20.7 mph N/A   Clear
6:53 PM 43.0 °F 37.7 °F 27.0 °F 53% 29.96 in 10.0 mi West 9.2 mph - N/A   Clear
7:53 PM 43.0 °F 36.8 °F 26.1 °F 51% 29.98 in 10.0 mi WNW 11.5 mph - N/A   Clear
8:53 PM 42.1 °F 35.7 °F 25.0 °F 51% 29.96 in 10.0 mi WNW 11.5 mph - N/A   Clear
9:53 PM 39.0 °F 33.4 °F 26.1 °F 60% 29.97 in 10.0 mi West 8.1 mph - N/A   Clear
10:53 PM 37.0 °F 34.5 °F 25.0 °F 62% 29.99 in 10.0 mi West 3.5 mph - N/A   Clear
11:53 PM 36.0 °F 31.1 °F 25.0 °F 64% 29.98 in 10.0 mi West 5.8 mph - N/A   Clear